Showing default

TELEOS 2, 56310

Orbit data source: Space-Track

TELEOS 2, 56310 is a payload satellite owned by AgilSpace (SG) in LEO that was launched on Sat, 22 Apr 2023 UTC via a PSLV launch vehicle from the Sirharikota (SRI). Payload-class satellites include a variety of spacecraft equipped with specific instruments for various scientific and technological missions. These include communications satellites like Starlink; space stations such as the ISS; scientific satellites like the Hubble; Earth observation satellites from companies like Planet Labs, Umbra, and HawkEye 360; GPS; miniature CubeSats for education and research; and military/defense satellites.

Not visible in the next 10 days
Identifier
56310, 2023-057C
Orbit
LEO
Country
Flag of SGSG / SING
Related business
Manufacturer
STE Sat Sys
Mission
Operational Commercial Radar Imaging
Bus & Motor
SS-400, Unknown motor
Mass
741 kg wet, 741 kg dry
Launch date (UTC)
2023-04-22 (3 years ago)
Launch vehicle
PSLV
Launch site
Sirharikota (SRI)
Object type
Payload
Rocket body
Debris
Shape & HBR
Hex Cyl + 4 Pan, 2.0 m
Radar Cross Section
6.467 m², Large (>1 m²)

Expand to show TLE details & history
Last TLE update: 1 day ago

TLE from 1 day ago
0 TELEOS 2
1 56310U 23057C   26093.17336608  .00000854  00000-0  14266-4 0  9996
2 56310   9.9901  30.3672 0001039 254.9175 105.0924 14.96393483161540
Epoch: 2026-04-03T04:09Z
TLE epoch observation values (Epoch: 2026-04-03T04:09:38.829Z)
Latitude
Longitude
136.44414°
Altitude
575.278 km
Speed
7.576 km/s
True Right ascension
02h 01m 28s
True Declination
0° 00' 00"
Sunlit
Object was in daylight at epoch
Visualization orbit readout
Latitude
Unknown
Longitude
Unknown
Altitude
Unknown
Speed
Unknown
Apparent Right ascension
Unknown
Apparent Declination
Unknown
Sunlit
N/A
Visualization observer readout
Local Sidereal Time
10:50:07
Azimuth
Unknown
Elevation
Unknown
Doppler factor
Unknown
Orbital elements
Apogee altitude
584.828 km
Perigee altitude
583.381 km
Semi-major axis
6,962.242 km
Eccentricity
0.0001
Inclination
9.9901°
RAAN
30.3672°
Arg. of periapsis
254.9175°
True anomaly
105.1039°
Mean anomaly
105.0924°
Eccentric anomaly
105.09815°
Mean motion
3.73611 °/min
Orbital period
96.36 mins
BSTAR
0.000014266
Loading maneuver chart data...
Computing Atmospheric mass density...
Loading historical data...
Loading historical data...
Loading historical data...
Loading historical data...
Loading historical data...
Loading historical data...
Loading historical data...
Other satellites on launch #57 in the year 2023 (2023-04-22 UTC)

Documentation

Showing up to 5 results
|